Wind_Speed
4 4 4 4 4 4 4 4 3 3 3 3 3 3 3 3 2 2 2 2 2 1 1 1 1 1 2 2 2 1 1 1 2 2 2 2 2 2 2 3 3 4 4
3 3 2 2 2 3 3 3 2 2 2 3 3 2 2 2 2 2 2 1 1 1 1 1 1 1 2 1 2 2 2 2 2 3 3 4 4 4 4 4 5 5 6
3 2 1 1 1 2 2 2 1 1 1 1 1 1 1 1 1 1 1 1 1 2 2 2 3 3 3 3 3 3 3 3 3 4 4 5 5 5 5 6 6 6 7
2 2 1 1 1 1 1 1 1 1 0 1 1 2 2 2 2 3 3 3 3 3 3 4 4 5 5 4 4 5 5 5 5 5 5 6 6 6 7 7 7 7 7
2 2 1 1 0 1 1 1 1 1 1 2 2 2 2 2 3 4 4 5 5 5 5 5 5 5 6 6 6 6 6 6 6 6 6 6 7 7 7 8 8 8 8
2 2 1 1 1 2 3 3 3 2 2 3 3 3 3 3 4 5 5 5 6 6 7 7 7 7 7 7 8 8 8 8 8 8 8 8 9 9 9 9 9 9 10
3 2 1 1 2 3 3 4 4 4 4 4 4 4 4 5 5 5 5 5 6 7 8 8 8 8 9 9 9 9 9 10 9 9 10 10 10 10 11 11 11 10 11
4 4 3 3 3 3 4 4 5 5 5 5 5 5 5 6 6 6 7 7 8 9 9 9 10 10 10 10 11 11 11 11 11 11 11 12 12 12 12 12 12 12 12
5 5 5 4 4 3 4 5 5 6 6 7 6 6 7 7 7 7 8 9 10 10 10 10 11 11 12 12 13 13 13 13 13 13 13 14 14 15 14 14 14 14 14
6 6 6 5 5 5 6 6 6 7 7 7 8 8 9 9 10 10 10 10 11 11 12 12 12 12 13 13 14 15 15 15 15 15 15 15 16 16 16 17 17 17 17
6 6 7 6 6 6 7 7 7 7 8 9 9 10 10 10 11 11 11 12 12 12 12 13 14 14 15 15 15 16 16 16 16 17 17 17 17 17 18 19 19 19 19
8 7 8 8 7 7 8 8 8 8 9 10 10 10 10 11 11 11 12 12 13 13 13 13 14 14 15 16 16 16 17 17 17 18 18 18 18 18 18 19 20 20 21
9 8 8 9 9 9 9 10 9 9 10 10 11 11 11 12 12 12 12 13 13 14 14 15 15 15 16 16 17 17 18 18 19 19 20 19 20 20 21 21 21 22 22
9 8 9 9 10 10 10 10 10 11 11 11 12 12 13 14 14 14 14 15 15 16 15 15 16 16 16 17 18 19 19 20 21 21 21 21 22 22 23 24 24 23 23
9 9 9 9 10 11 12 11 11 11 12 13 13 14 15 15 15 15 16 16 16 16 17 18 18 18 18 18 20 20 20 21 22 22 22 22 23 24 25 26 26 26 26
10 9 9 9 10 11 11 12 13 13 14 14 15 15 15 15 15 16 16 16 17 17 18 19 19 19 19 20 21 21 22 22 22 22 23 24 24 25 26 26 27 27 28
11 10 10 11 11 11 12 12 13 14 15 15 15 16 16 17 17 17 17 17 18 19 19 19 20 20 20 21 22 22 22 23 23 24 25 26 26 27 28 29 29 30 30
11 11 11 12 12 12 12 12 12 13 14 14 15 16 17 17 18 18 18 19 19 20 20 20 21 21 21 23 23 24 24 24 25 26 27 28 28 29 30 30 31 32 32
12 12 12 13 12 12 11 12 12 13 14 14 15 16 17 17 18 18 18 19 20 21 22 21 22 23 23 24 25 25 25 26 26 27 28 29 30 31 32 32 33 33 34
13 13 13 13 13 13 12 12 14 14 14 15 15 16 17 18 19 19 20 21 22 23 23 23 24 25 25 26 27 27 27 28 28 28 29 30 31 31 32 33 34 35 35
14 15 14 13 13 13 13 13 15 15 16 16 16 17 18 19 19 21 21 22 23 24 25 25 26 27 26 27 28 28 29 30 30 31 32 32 33 33 34 35 36 36 37
15 15 14 14 14 15 15 16 17 17 18 18 19 19 20 21 22 22 23 23 24 25 25 25 26 27 27 28 28 30 31 31 32 33 34 34 35 36 37 37 37 37 38
16 15 16 16 16 17 17 18 18 19 19 20 20 21 22 22 23 24 24 25 25 25 25 26 27 27 27 28 29 30 31 32 33 35 36 37 38 38 39 39 39 39 40
17 17 17 17 17 17 18 19 19 19 20 21 21 22 23 23 24 24 25 26 26 27 27 28 29 29 30 31 31 32 33 34 35 36 37 38 39 40 41 41 41 42 42
18 18 18 18 18 19 19 19 20 21 22 22 23 23 24 24 25 25 26 26 27 27 28 29 30 31 32 33 34 34 35 36 37 38 39 39 40 41 42 42 43 44 45
19 19 18 18 19 20 20 21 22 22 23 23 24 24 25 26 26 27 27 28 29 30 30 31 32 33 34 35 36 36 37 38 38 39 39 40 41 42 44 44 45 44 44
Wind_Direction
76 73 69 80 82 82 85 89 90 81 87 80 79 82 80 82 83 78 71 78 82 83 77 62 64 53 32 30 25 6 335 309 283 272 258 255 265 265 259 257 256 256 259
66 68 73 91 92 84 79 83 89 85 84 77 65 65 67 65 65 56 65 66 45 23 347 339 342 331 329 337 340 340 325 310 286 275 272 269 267 265 271 270 267 267 266
62 58 59 92 119 108 90 71 65 97 98 83 46 22 8 344 343 315 326 328 330 330 312 296 301 301 301 305 310 310 308 302 295 284 276 271 266 267 271 273 270 269 269
55 53 46 83 121 154 108 51 43 42 354 342 342 331 320 299 286 280 281 283 293 301 300 297 298 296 296 298 300 300 298 295 292 288 277 272 272 271 271 273 274 272 272
33 27 11 65 178 228 260 281 290 316 328 320 316 309 298 292 283 283 284 287 288 292 294 294 297 292 290 291 293 291 289 289 289 286 280 276 276 275 274 273 271 272 273
4 356 333 276 270 271 273 276 271 267 274 280 282 283 287 297 292 289 290 292 288 293 295 291 293 290 283 284 286 288 286 285 286 285 281 277 276 275 275 274 273 273 274
340 334 331 279 264 267 266 265 268 269 272 273 274 279 289 294 288 289 291 291 288 290 291 289 287 286 282 282 282 287 288 284 283 284 281 279 278 279 277 276 274 275 276
325 327 312 311 290 271 262 268 272 272 275 272 271 275 281 290 286 287 287 286 286 286 287 285 284 283 282 283 281 281 282 283 281 282 282 279 280 281 278 277 276 275 275
313 312 308 299 290 276 271 283 281 275 274 271 268 271 278 283 287 289 288 286 286 286 286 283 285 285 283 283 282 279 281 281 280 279 281 280 279 279 276 275 275 274 275
309 302 302 304 295 284 279 283 279 276 275 276 273 276 280 282 282 285 288 288 288 285 287 287 288 288 285 285 284 279 279 278 277 278 280 282 281 278 276 276 275 274 275
299 293 289 295 298 291 283 280 278 275 275 277 277 280 283 286 283 282 286 292 291 288 287 286 286 288 286 285 285 284 280 278 277 278 279 279 280 279 278 277 276 276 276
304 295 287 282 281 285 284 281 281 277 276 280 282 283 285 289 289 286 288 289 289 289 290 291 289 288 287 285 285 285 284 281 279 279 279 279 280 279 279 277 277 278 278
305 297 295 283 277 277 277 278 280 280 279 281 285 285 285 288 289 288 288 289 291 291 293 294 293 287 286 285 285 285 285 281 281 281 279 279 279 279 279 277 278 278 278
303 296 291 286 282 279 278 276 279 281 280 282 285 286 286 289 289 289 290 290 290 291 294 294 295 291 289 287 286 284 284 282 281 282 282 280 279 279 280 279 279 278 277
305 297 291 289 286 286 280 280 281 285 286 286 286 288 290 291 290 289 289 288 289 289 290 291 294 293 289 288 287 286 284 283 282 280 280 280 281 279 278 279 278 277 276
302 300 290 289 289 289 287 285 286 286 286 286 287 289 289 289 288 288 290 290 290 290 291 291 291 292 291 289 288 287 287 286 285 282 279 278 282 282 279 278 278 278 278
301 298 295 293 290 288 292 292 289 287 286 286 285 286 288 289 288 287 288 289 289 290 291 290 291 291 289 289 288 287 288 287 286 284 282 281 281 282 282 280 279 279 280
301 298 296 296 296 295 298 298 295 294 290 289 290 290 290 291 290 289 289 289 288 289 289 289 289 290 289 288 288 287 286 285 285 285 284 283 282 283 283 283 282 281 280
303 304 302 298 297 295 293 296 297 298 295 294 293 293 292 291 293 293 292 291 290 291 290 290 291 291 289 288 287 287 287 286 285 286 286 285 285 283 282 283 281 281 280
303 304 304 299 296 292 292 296 298 296 295 295 295 295 296 295 294 294 293 293 294 294 293 292 294 292 290 289 288 287 287 287 286 286 286 286 286 285 285 285 283 282 281
298 301 299 296 296 294 293 296 297 298 297 296 296 296 296 297 296 296 295 294 295 296 295 293 292 293 293 291 291 289 288 288 288 288 287 287 287 286 285 284 283 284 283
297 297 293 292 293 291 293 296 296 295 294 295 296 297 297 296 295 296 297 297 297 297 297 296 296 295 293 291 291 291 290 291 289 289 288 288 287 286 286 284 284 285 285
291 293 290 290 292 291 292 295 295 294 294 294 296 296 297 296 294 295 296 296 296 297 298 297 296 296 294 293 294 295 294 294 291 290 290 288 288 288 286 285 285 284 283
290 291 290 292 294 295 296 296 295 294 294 293 294 297 298 299 299 298 298 297 297 296 297 295 295 295 294 294 294 295 294 293 292 291 290 290 289 288 287 286 286 285 284
289 290 292 292 293 296 295 295 295 294 294 295 296 298 299 299 300 301 300 301 300 300 299 299 299 297 296 296 296 295 294 293 293 292 292 292 291 291 290 289 287 287 286
289 289 292 294 295 297 296 294 294 296 296 296 298 299 299 299 301 301 301 301 301 301 300 300 299 298 298 298 297 296 295 295 295 295 294 294 293 292 291 290 290 288 287
Height
5898 5898 5898 5898 5898 5899 5899 5899 5899 5899 5899 5899 5899 5899 5899 5899 5899 5899 5899 5899 5899 5899 5899 5899 5899 5899 5899 5899 5898 5898 5898 5898 5898 5898 5898 5898 5898 5898 5898 5899 5899 5899 5899
5899 5899 5899 5899 5899 5899 5899 5899 5899 5899 5900 5900 5900 5900 5900 5900 5899 5899 5899 5899 5899 5899 5899 5899 5899 5899 5898 5898 5898 5898 5898 5898 5898 5898 5898 5898 5898 5898 5898 5898 5898 5898 5898
5899 5899 5899 5899 5899 5899 5900 5900 5899 5899 5899 5900 5900 5900 5900 5900 5900 5899 5899 5899 5899 5899 5899 5899 5898 5898 5898 5898 5898 5898 5897 5897 5897 5897 5897 5897 5897 5897 5897 5897 5897 5897 5897
5900 5899 5899 5899 5899 5899 5900 5900 5899 5899 5899 5899 5899 5899 5899 5899 5899 5899 5899 5899 5899 5899 5899 5898 5898 5898 5898 5897 5897 5897 5896 5896 5896 5896 5896 5896 5895 5895 5895 5895 5895 5895 5895
5900 5899 5899 5899 5899 5899 5899 5899 5899 5899 5899 5899 5899 5899 5899 5899 5899 5899 5899 5899 5898 5898 5898 5898 5897 5897 5897 5896 5896 5896 5895 5895 5894 5894 5894 5894 5894 5894 5894 5894 5893 5893 5893
5900 5899 5899 5899 5898 5899 5899 5899 5899 5899 5899 5899 5898 5898 5898 5898 5898 5898 5898 5897 5897 5897 5897 5896 5896 5896 5895 5895 5895 5894 5894 5893 5893 5892 5892 5892 5892 5892 5892 5891 5891 5891 5891
5900 5899 5899 5898 5898 5898 5898 5898 5898 5898 5898 5898 5898 5898 5898 5897 5897 5897 5896 5896 5896 5896 5895 5895 5894 5894 5894 5893 5893 5893 5892 5891 5891 5890 5890 5890 5890 5890 5889 5889 5889 5889 5889
5899 5899 5898 5898 5897 5897 5897 5897 5897 5897 5897 5897 5897 5897 5897 5897 5896 5895 5895 5895 5894 5894 5893 5893 5892 5892 5891 5891 5891 5891 5890 5889 5889 5888 5888 5888 5887 5887 5887 5886 5886 5886 5886
5899 5898 5897 5897 5897 5896 5896 5896 5896 5896 5896 5896 5896 5896 5895 5895 5895 5894 5893 5893 5892 5892 5891 5890 5890 5889 5889 5888 5888 5888 5887 5887 5887 5886 5886 5885 5885 5884 5884 5883 5883 5883 5883
5898 5897 5897 5896 5896 5895 5895 5895 5895 5895 5895 5895 5894 5894 5894 5893 5893 5892 5892 5891 5890 5889 5889 5888 5887 5887 5886 5885 5885 5884 5884 5884 5883 5883 5882 5882 5881 5881 5880 5880 5879 5879 5878
5897 5896 5895 5895 5895 5894 5894 5894 5893 5893 5893 5893 5893 5892 5892 5891 5890 5890 5889 5889 5888 5886 5886 5885 5884 5884 5883 5882 5881 5881 5880 5879 5879 5879 5878 5878 5877 5877 5876 5875 5875 5874 5874
5895 5895 5894 5893 5893 5893 5892 5892 5892 5891 5891 5891 5891 5890 5890 5889 5888 5887 5886 5886 5885 5884 5883 5882 5881 5880 5879 5878 5878 5877 5876 5875 5875 5875 5874 5874 5873 5872 5871 5871 5870 5870 5869
5894 5893 5892 5891 5891 5891 5891 5890 5890 5890 5889 5889 5889 5888 5887 5887 5886 5885 5884 5883 5882 5881 5880 5879 5878 5877 5876 5875 5874 5873 5872 5871 5871 5870 5869 5868 5868 5867 5867 5866 5865 5864 5864
5892 5891 5890 5889 5889 5889 5889 5888 5888 5887 5887 5886 5886 5885 5885 5884 5883 5882 5881 5880 5879 5878 5876 5875 5874 5873 5872 5871 5869 5869 5868 5867 5866 5865 5864 5863 5863 5862 5861 5860 5859 5859 5858
5889 5889 5888 5887 5887 5886 5886 5886 5885 5885 5884 5884 5883 5882 5881 5880 5879 5878 5877 5876 5875 5874 5873 5871 5870 5869 5867 5866 5865 5864 5863 5862 5861 5860 5859 5858 5857 5856 5855 5854 5853 5852 5851
5888 5887 5886 5885 5885 5884 5884 5883 5883 5882 5882 5881 5880 5879 5878 5877 5876 5875 5874 5872 5871 5870 5869 5867 5865 5864 5863 5861 5860 5859 5858 5857 5855 5854 5853 5852 5851 5850 5848 5847 5846 5845 5844
5886 5885 5884 5884 5883 5882 5881 5880 5880 5879 5878 5878 5877 5876 5874 5873 5872 5871 5870 5868 5867 5865 5864 5863 5861 5860 5858 5857 5855 5854 5852 5851 5849 5848 5847 5846 5844 5843 5842 5840 5839 5838 5836
5884 5883 5882 5881 5880 5879 5878 5877 5876 5876 5875 5874 5873 5872 5871 5869 5868 5866 5865 5863 5862 5861 5859 5858 5856 5854 5853 5851 5850 5848 5846 5845 5843 5842 5840 5838 5837 5835 5834 5832 5831 5829 5828
5882 5880 5879 5878 5877 5876 5875 5874 5874 5873 5872 5871 5870 5868 5867 5865 5864 5862 5860 5859 5857 5856 5854 5853 5851 5849 5847 5845 5843 5842 5840 5838 5836 5835 5833 5831 5829 5827 5825 5824 5822 5820 5819
5879 5878 5877 5876 5875 5874 5873 5872 5871 5870 5869 5867 5866 5865 5863 5861 5859 5858 5856 5854 5852 5851 5849 5847 5845 5843 5841 5839 5837 5835 5833 5831 5829 5827 5825 5823 5821 5819 5817 5815 5813 5811 5809
5876 5875 5873 5873 5872 5871 5870 5869 5868 5867 5865 5864 5862 5861 5859 5857 5855 5853 5851 5849 5847 5845 5843 5841 5839 5836 5834 5832 5830 5828 5826 5824 5821 5819 5817 5814 5812 5810 5807 5805 5803 5801 5798
5873 5872 5871 5870 5869 5868 5867 5865 5864 5863 5861 5860 5858 5856 5854 5852 5850 5848 5846 5843 5841 5839 5837 5834 5832 5829 5827 5825 5822 5820 5817 5815 5813 5811 5808 5805 5803 5800 5797 5795 5792 5790 5787
5870 5869 5868 5867 5865 5864 5863 5861 5860 5858 5857 5855 5853 5851 5849 5847 5844 5842 5840 5838 5835 5833 5830 5828 5825 5823 5820 5818 5815 5812 5809 5807 5804 5801 5798 5795 5792 5789 5787 5784 5781 5779 5776
5867 5865 5864 5863 5861 5860 5858 5857 5855 5853 5852 5850 5848 5846 5843 5841 5838 5836 5834 5831 5829 5826 5824 5821 5818 5815 5812 5809 5806 5804 5800 5798 5795 5791 5788 5785 5781 5778 5775 5772 5769 5766 5763
5862 5861 5860 5858 5857 5855 5853 5852 5850 5848 5846 5844 5842 5840 5838 5835 5833 5830 5828 5825 5822 5819 5816 5813 5810 5807 5804 5800 5797 5794 5790 5787 5784 5781 5777 5774 5770 5767 5763 5760 5756 5753 5750
5857 5856 5855 5854 5852 5851 5849 5847 5845 5843 5841 5839 5837 5834 5832 5829 5826 5823 5821 5818 5815 5812 5809 5805 5802 5799 5795 5791 5788 5784 5780 5777 5773 5770 5766 5762 5758 5754 5751 5747 5743 5740 5736